| time (UTC) | temp F | wind direction | speed MPH | gust MPH | rain 1hr in | rain 24hr in | rain mn in | humidity % | barometer mb |
| 20260504000328 | 51 | 19 | 0.0 | 1.0 | 0.00 | 0.00 | 0.00 | 50 | 1001.0 |
| 20260503234521 | 51 | 19 | 0.0 | 0.0 | 0.00 | 0.00 | 0.00 | 42 | 1001.0 |
| 20260503231524 | 52 | 13 | 1.0 | 1.0 | 0.00 | 0.00 | 0.00 | 41 | 1001.0 |
| 20260503230953 | 52 | 19 | 0.0 | 0.0 | 0.00 | 0.00 | 0.00 | 46 | 1001.0 |
| 20260503230351 | 52 | 47 | 1.0 | 1.0 | 0.00 | 0.00 | 0.00 | 42 | 1000.6 |
| 20260503225724 | 52 | 13 | 0.0 | 0.0 | 0.00 | 0.00 | 0.00 | 43 | 1000.6 |
| 20260503225148 | 53 | 10 | 0.0 | 0.0 | 0.00 | 0.00 | 0.00 | 42 | 1001.0 |
| 20260503224527 | 54 | 9 | 0.0 | 0.0 | 0.00 | 0.00 | 0.00 | 38 | 1001.0 |
| 20260503223912 | 54 | 320 | 2.0 | 2.0 | 0.00 | 0.00 | 0.00 | 38 | 1001.3 |
| 20260503223351 | 54 | 352 | 1.0 | 2.0 | 0.00 | 0.00 | 0.00 | 42 | 1001.3 |
| 20260503222727 | 54 | 331 | 2.0 | 2.0 | 0.00 | 0.00 | 0.00 | 36 | 1001.0 |
| 20260503222144 | 54 | 26 | 0.0 | 0.0 | 0.00 | 0.00 | 0.00 | 36 | 1001.0 |
| 20260503221527 | 56 | 294 | 3.0 | 3.0 | 0.00 | 0.00 | 0.00 | 38 | 1001.3 |
| 20260503220909 | 56 | 316 | 1.0 | 2.0 | 0.00 | 0.00 | 0.00 | 36 | 1001.0 |
| 20260503220333 | 56 | 271 | 1.0 | 2.0 | 0.00 | 0.00 | 0.00 | 35 | 1001.0 |
| 20260503215723 | 57 | 310 | 3.0 | 3.0 | 0.00 | 0.00 | 0.00 | 34 | 1001.0 |
| 20260503215141 | 58 | 296 | 2.0 | 2.0 | 0.00 | 0.00 | 0.00 | 37 | 1001.0 |
| 20260503214519 | 58 | 6 | 0.0 | 0.0 | 0.00 | 0.00 | 0.00 | 37 | 1000.6 |
| 20260503213944 | 57 | 357 | 0.0 | 0.0 | 0.00 | 0.00 | 0.00 | 36 | 1001.0 |
| 20260503213328 | 56 | 298 | 2.0 | 2.0 | 0.00 | 0.00 | 0.00 | 36 | 1001.0 |
| 20260503212750 | 56 | 357 | 1.0 | 2.0 | 0.00 | 0.00 | 0.00 | 37 | 1001.0 |
| 20260503212128 | 57 | 2 | 1.0 | 1.0 | 0.00 | 0.00 | 0.00 | 35 | 1001.0 |
| 20260503211543 | 58 | 273 | 3.0 | 4.0 | 0.00 | 0.00 | 0.00 | 34 | 1001.0 |
| 20260503210933 | 57 | 200 | 3.0 | 4.0 | 0.00 | 0.00 | 0.00 | 34 | 1001.0 |
| 20260503210349 | 58 | 293 | 4.0 | 4.0 | 0.00 | 0.00 | 0.00 | 34 | 1001.3 |
| 20260503205719 | 58 | 51 | 1.0 | 1.0 | 0.00 | 0.00 | 0.00 | 34 | 1001.0 |
| 20260503203914 | 57 | 7 | 3.0 | 3.0 | 0.00 | 0.00 | 0.00 | 37 | 1001.3 |
| 20260503203343 | 56 | 280 | 2.0 | 3.0 | 0.00 | 0.00 | 0.00 | 38 | 1001.6 |
| 20260503202733 | 56 | 27 | 1.0 | 1.0 | 0.00 | 0.00 | 0.00 | 36 | 1001.3 |
| 20260503202127 | 56 | 332 | 2.0 | 2.0 | 0.00 | 0.00 | 0.00 | 37 | 1001.3 |
| 20260503201509 | 57 | 241 | 3.0 | 3.0 | 0.00 | 0.00 | 0.00 | 36 | 1001.6 |
| 20260503200953 | 58 | 347 | 3.0 | 4.0 | 0.00 | 0.00 | 0.00 | 36 | 1001.6 |
| 20260503200321 | 57 | 286 | 1.0 | 2.0 | 0.00 | 0.00 | 0.00 | 38 | 1002.0 |
| 20260503195119 | 55 | 285 | 1.0 | 2.0 | 0.00 | 0.00 | 0.00 | 36 | 1002.0 |
| 20260503194527 | 55 | 315 | 3.0 | 3.0 | 0.00 | 0.00 | 0.00 | 37 | 1002.3 |
| 20260503193935 | 54 | 349 | 2.0 | 2.0 | 0.00 | 0.00 | 0.00 | 35 | 1002.0 |
| 20260503193341 | 56 | 335 | 2.0 | 3.0 | 0.00 | 0.00 | 0.00 | 37 | 1002.7 |
| 20260503192753 | 55 | 15 | 1.0 | 2.0 | 0.00 | 0.00 | 0.00 | 38 | 1002.7 |
| 20260503192120 | 56 | 280 | 4.0 | 6.0 | 0.00 | 0.00 | 0.00 | 38 | 1002.3 |
| 20260503190909 | 54 | 309 | 2.0 | 2.0 | 0.00 | 0.00 | 0.00 | 38 | 1002.7 |
| 20260503185750 | 54 | 265 | 4.0 | 7.0 | 0.00 | 0.00 | 0.00 | 38 | 1002.7 |
| 20260503185141 | 54 | 332 | 1.0 | 2.0 | 0.00 | 0.00 | 0.00 | 36 | 1003.0 |
| 20260503184540 | 56 | 334 | 3.0 | 4.0 | 0.00 | 0.00 | 0.00 | 39 | 1002.7 |
| 20260503183353 | 55 | 12 | 1.0 | 2.0 | 0.00 | 0.00 | 0.00 | 43 | 1002.7 |
| 20260503182749 | 54 | 297 | 4.0 | 6.0 | 0.00 | 0.00 | 0.00 | 40 | 1002.7 |
| 20260503182146 | 53 | 350 | 2.0 | 4.0 | 0.00 | 0.00 | 0.00 | 43 | 1002.7 |
| 20260503181545 | 53 | 299 | 2.0 | 2.0 | 0.00 | 0.00 | 0.00 | 40 | 1002.7 |
| 20260503180335 | 54 | 44 | 1.0 | 1.0 | 0.00 | 0.00 | 0.00 | 41 | 1003.0 |
| 20260503175731 | 54 | 28 | 1.0 | 1.0 | 0.00 | 0.00 | 0.00 | 36 | 1003.3 |
| 20260503175123 | 55 | 41 | 1.0 | 1.0 | 0.00 | 0.00 | 0.00 | 37 | 1003.3 |
| 20260503174550 | 53 | 342 | 1.0 | 1.0 | 0.00 | 0.00 | 0.00 | 43 | 1003.3 |
| 20260503173918 | 50 | 126 | 3.0 | 4.0 | 0.00 | 0.00 | 0.00 | 40 | 1003.3 |
| 20260503173309 | 52 | 312 | 2.0 | 2.0 | 0.00 | 0.00 | 0.00 | 39 | 1003.3 |
| 20260503172730 | 53 | 306 | 1.0 | 2.0 | 0.00 | 0.00 | 0.00 | 41 | 1003.7 |
| 20260503172124 | 52 | 29 | 1.0 | 1.0 | 0.00 | 0.00 | 0.00 | 40 | 1003.7 |
| 20260503171538 | 52 | 358 | 1.0 | 2.0 | 0.00 | 0.00 | 0.00 | 45 | 1003.7 |
| 20260503170935 | 51 | 343 | 1.0 | 1.0 | 0.00 | 0.00 | 0.00 | 41 | 1003.7 |
| 20260503170347 | 52 | 45 | 1.0 | 1.0 | 0.00 | 0.00 | 0.00 | 39 | 1003.7 |
| 20260503150929 | 43 | 336 | 0.0 | 1.0 | 0.00 | 0.00 | 0.00 | 52 | 1004.4 |
| 20260503150317 | 43 | 20 | 0.0 | 1.0 | 0.00 | 0.00 | 0.00 | 53 | 1004.7 |
| 20260503130953 | 37 | 38 | 0.0 | 1.0 | 0.00 | 0.00 | 0.00 | 76 | 1004.0 |
| 20260503110340 | 29 | 47 | 1.0 | 1.0 | 0.00 | 0.00 | 0.00 | 96 | 1003.0 |
| 20260503081547 | 32 | 38 | 0.0 | 0.0 | 0.00 | 0.00 | 0.00 | 90 | 1001.6 |
| 20260503080949 | 32 | 34 | 0.0 | 0.0 | 0.00 | 0.00 | 0.00 | 90 | 1001.6 |
| 20260503072739 | 32 | 26 | 0.0 | 0.0 | 0.00 | 0.00 | 0.00 | 86 | 1001.3 |
| 20260503072130 | 33 | 32 | 0.0 | 0.0 | 0.00 | 0.00 | 0.00 | 86 | 1001.3 |
| 20260503071549 | 33 | 32 | 0.0 | 0.0 | 0.00 | 0.00 | 0.00 | 86 | 1001.3 |
| 20260503070936 | 33 | 31 | 0.0 | 0.0 | 0.00 | 0.00 | 0.00 | 86 | 1001.3 |
| 20260503070324 | 33 | 32 | 0.0 | 0.0 | 0.00 | 0.00 | 0.00 | 86 | 1001.3 |
| 20260503054554 | 36 | 9 | 0.0 | 0.0 | 0.00 | 0.00 | 0.00 | 81 | 1001.3 |
| 20260503053919 | 36 | 17 | 0.0 | 1.0 | 0.00 | 0.00 | 0.00 | 80 | 1001.3 |
| 20260503053347 | 36 | 354 | 1.0 | 1.0 | 0.00 | 0.00 | 0.00 | 81 | 1001.3 |
| 20260503052747 | 36 | 9 | 0.0 | 1.0 | 0.00 | 0.00 | 0.00 | 80 | 1001.3 |
| 20260503051524 | 37 | 354 | 1.0 | 1.0 | 0.00 | 0.00 | 0.00 | 80 | 1001.0 |
| 20260503050931 | 37 | 359 | 1.0 | 1.0 | 0.00 | 0.00 | 0.00 | 80 | 1001.0 |
| 20260503050352 | 37 | 215 | 1.0 | 2.0 | 0.00 | 0.00 | 0.00 | 80 | 1001.3 |
| 20260503045715 | 37 | 13 | 0.0 | 1.0 | 0.00 | 0.00 | 0.00 | 80 | 1001.3 |
| 20260503044527 | 37 | 12 | 0.0 | 0.0 | 0.00 | 0.00 | 0.00 | 78 | 1001.3 |
| 20260503043920 | 37 | 15 | 0.0 | 0.0 | 0.00 | 0.00 | 0.00 | 78 | 1001.3 |
| 20260503043328 | 38 | 18 | 0.0 | 0.0 | 0.00 | 0.00 | 0.00 | 77 | 1001.0 |
| 20260503042146 | 38 | 24 | 0.0 | 0.0 | 0.00 | 0.00 | 0.00 | 77 | 1001.0 |
| 20260503041521 | 38 | 7 | 0.0 | 1.0 | 0.00 | 0.00 | 0.00 | 77 | 1001.0 |
| 20260503040953 | 38 | 25 | 0.0 | 0.0 | 0.00 | 0.00 | 0.00 | 77 | 1001.0 |
| 20260503035115 | 38 | 17 | 0.0 | 0.0 | 0.00 | 0.00 | 0.00 | 76 | 1001.0 |
| 20260503034548 | 38 | 17 | 0.0 | 0.0 | 0.00 | 0.00 | 0.00 | 75 | 1001.3 |
| 20260503033930 | 38 | 24 | 0.0 | 1.0 | 0.00 | 0.00 | 0.00 | 75 | 1001.0 |
| 20260503033342 | 39 | 12 | 1.0 | 1.0 | 0.00 | 0.00 | 0.00 | 73 | 1001.0 |
| 20260503032733 | 39 | 13 | 0.0 | 1.0 | 0.00 | 0.00 | 0.00 | 74 | 1001.0 |
| 20260503031530 | 39 | 20 | 0.0 | 0.0 | 0.00 | 0.00 | 0.00 | 73 | 1001.0 |
| 20260503030942 | 39 | 11 | 0.0 | 0.0 | 0.00 | 0.00 | 0.00 | 73 | 1001.0 |
| 20260503030315 | 39 | 14 | 0.0 | 0.0 | 0.00 | 0.00 | 0.00 | 72 | 1001.0 |
| 20260503025735 | 39 | 14 | 0.0 | 0.0 | 0.00 | 0.00 | 0.00 | 72 | 1000.6 |
| 20260503025140 | 39 | 27 | 0.0 | 0.0 | 0.00 | 0.00 | 0.00 | 72 | 1001.0 |
| 20260503023940 | 39 | 10 | 0.0 | 1.0 | 0.00 | 0.00 | 0.00 | 73 | 1001.3 |
| 20260503023333 | 39 | 16 | 1.0 | 1.0 | 0.00 | 0.00 | 0.00 | 73 | 1001.0 |
| 20260503022730 | 40 | 21 | 0.0 | 1.0 | 0.00 | 0.00 | 0.00 | 72 | 1001.0 |
| 20260503022138 | 40 | 27 | 1.0 | 2.0 | 0.00 | 0.00 | 0.00 | 73 | 1001.0 |
| 20260503021544 | 40 | 38 | 0.0 | 0.0 | 0.00 | 0.00 | 0.00 | 69 | 1001.0 |
| 20260503020927 | 40 | 33 | 0.0 | 0.0 | 0.00 | 0.00 | 0.00 | 70 | 1001.0 |
| 20260503020342 | 40 | 31 | 0.0 | 1.0 | 0.00 | 0.00 | 0.00 | 69 | 1000.6 |
| 20260503015731 | 41 | 8 | 0.0 | 0.0 | 0.00 | 0.00 | 0.00 | 67 | 1000.6 |
| 20260503015115 | 41 | 344 | 0.0 | 1.0 | 0.00 | 0.00 | 0.00 | 68 | 1000.6 |
| 20260503014529 | 41 | 306 | 0.0 | 1.0 | 0.00 | 0.00 | 0.00 | 67 | 1000.6 |
| 20260503013946 | 41 | 328 | 1.0 | 1.0 | 0.00 | 0.00 | 0.00 | 65 | 1000.6 |
| 20260503012744 | 41 | 9 | 0.0 | 1.0 | 0.00 | 0.00 | 0.00 | 65 | 1000.6 |
| 20260503012116 | 41 | 65 | 1.0 | 1.0 | 0.00 | 0.00 | 0.00 | 64 | 1000.6 |
| 20260503011539 | 41 | 15 | 0.0 | 0.0 | 0.00 | 0.00 | 0.00 | 66 | 1000.0 |
| 20260503010928 | 41 | 26 | 1.0 | 1.0 | 0.00 | 0.00 | 0.00 | 66 | 1000.3 |
| 20260503010349 | 41 | 354 | 1.0 | 2.0 | 0.00 | 0.00 | 0.00 | 64 | 1000.3 |
| 20260503005711 | 42 | 32 | 0.0 | 0.0 | 0.00 | 0.00 | 0.00 | 65 | 1000.0 |
| 20260503005152 | 42 | 33 | 0.0 | 1.0 | 0.00 | 0.00 | 0.00 | 61 | 1000.0 |
| 20260503004515 | 42 | 18 | 0.0 | 0.0 | 0.00 | 0.00 | 0.00 | 63 | 1000.0 |
| 20260503003347 | 42 | 11 | 0.0 | 0.0 | 0.00 | 0.00 | 0.00 | 62 | 1000.3 |
| 20260503002754 | 42 | 70 | 1.0 | 1.0 | 0.00 | 0.00 | 0.00 | 61 | 1000.0 |
| 20260503002139 | 43 | 359 | 1.0 | 1.0 | 0.00 | 0.00 | 0.00 | 61 | 1000.0 |
| 20260503001523 | 43 | 5 | 2.0 | 2.0 | 0.00 | 0.00 | 0.00 | 57 | 1000.0 |
| 20260503000934 | 43 | 13 | 0.0 | 0.0 | 0.00 | 0.00 | 0.00 | 59 | 1000.0 |